Location: The Stocker AstroScience Center
(25.7579°N, 80.3725°W)
Time: 19:48:21
(UTC-05:00)

ISS - All Passes

Search period start: 22 February 2018 00:00
Search period end: 04 March 2018 00:00
Orbit: 402 x 407 km, 51.6° (Epoch: 23 February)

Date Brightness Start Highest point End Pass type
(mag) Time Alt. Az. Time Alt. Az. Time Alt. Az.
22 Feb - 06:46:34 10° SSW 06:49:46 56° SE 06:52:58 10° NE daylight
22 Feb - 14:57:40 10° N 14:59:58 18° NE 15:02:14 10° E daylight
22 Feb - 16:33:43 10° WNW 16:36:22 23° SW 16:39:01 10° S daylight
23 Feb - 05:55:02 10° S 05:57:39 22° SE 06:00:16 10° ENE visible
23 Feb - 07:31:42 10° W 07:34:03 18° NW 07:36:24 10° N daylight
23 Feb - 15:41:02 10° NW 15:44:15 59° SW 15:47:27 10° SSE daylight
24 Feb - 06:38:38 10° WSW 06:41:43 38° NW 06:44:48 10° NNE daylight
24 Feb - 14:48:51 10° NNW 14:52:02 51° NE 14:55:12 10° SE daylight
25 Feb - 05:46:12 10° SW 05:49:28 81° SE 05:52:44 10° NE visible
25 Feb - 13:57:04 10° N 13:59:43 22° NE 14:02:20 10° E daylight
25 Feb - 15:33:47 10° W 15:36:01 17° SW 15:38:15 10° S daylight
26 Feb - 04:54:22 10° S 04:57:17 30° SE 05:00:12 10° ENE visible
26 Feb - 06:31:53 10° WNW 06:33:46 14° NW 06:35:41 10° N daylight
26 Feb - 13:06:07 10° NNE 13:07:17 11° NE 13:08:27 10° ENE daylight
26 Feb - 14:40:47 10° WNW 14:43:52 41° SW 14:46:58 10° SSE daylight
27 Feb - 04:03:31 10° SSE 04:05:09 13° SE 04:06:47 10° E visible
27 Feb - 05:38:29 10° WSW 05:41:23 29° NW 05:44:17 10° NNE visible
27 Feb - 13:48:24 10° NW 13:51:39 72° NE 13:54:53 10° SE daylight
28 Feb - 04:45:49 10° SW 04:49:03 72° NW 04:52:19 10° NE visible
28 Feb - 12:56:27 10° NNW 12:59:21 29° NE 13:02:14 10° ESE daylight
28 Feb - 14:33:59 10° W 14:35:33 13° SW 14:37:08 10° SSW daylight
01 Mar - 03:53:43 10° SSW 03:56:49 42° SE 03:59:56 10° ENE visible
01 Mar - 05:32:15 10° WNW 05:33:25 11° NW 05:34:35 10° NNW visible
01 Mar - 12:05:01 10° N 12:06:54 14° NE 12:08:47 10° ENE daylight
01 Mar - 13:40:30 10° WNW 13:43:24 30° SW 13:46:17 10° S daylight
02 Mar - 03:02:21 10° S 03:04:38 18° SE 03:06:54 10° E night (unlit)
02 Mar - 04:38:17 10° W 04:40:56 22° NW 04:43:36 10° N visible
02 Mar - 12:47:55 10° NW 12:51:10 80° SW 12:54:24 10° SE daylight
03 Mar - 03:45:22 10° SW 03:48:33 51° NW 03:51:45 10° NNE night (unlit)
03 Mar - 11:55:45 10° NNW 11:58:50 38° NE 12:01:54 10° ESE daylight
